SCP
0 0 0 0 0 0 0 0 0 0 0 0 0 0 0 0 0 0 0 0 0 0 0 0 0 0 0 0 0 0 0 0 0 0 0 0 0 0 0 0 0 0 0 0
0 0 0 0 0 0 0 0 0 0 0 0 0 0 0 0 0 0 0 0 0 0 0 0 0 0 0 0 0 0 0 0 0 0 0 0 0 0 0 0 0 0 0 0
0 0 0 0 0 0 0 0 0 0 0 0 0 0 0 0 0 0 0 0 0 0 0 0 0 0 0 0 0 0 0 0 0 0 0 0 0 0 0 0 0 0 0 -0
0 0 0 0 0 0 0 0 0 0 0 0 0 0 0 0 0 0 0 0 0 0 0 0 0 0 0 0 0 0 0 0 0 0 0 0 0 0 0 0 0 0 0 0
0 0 0 0 0 0 0 0 0 0 0 0 0 0 0 0 0 0 0 0 0 0 0 0 0 0 0 0 0 0 0 0 0 0 0 0 0 -0 0 0 0 0 0 0
0 0 0 0 0 0 0 0 0 0 0 0 0 0 0 0 0 0 0 0 0 0 0 0 0 0 0 0 0 0 0 0 0 -0 0 0 -0 0 0 0 0 0 0 0
0 0 0 0 0 0 0 0 0 0 0 0 0 0 0 0 0 0 0 0 0 0 0 -0 0 0 -0 0 0 0 0 0 0 0 0 0 0 0 0 0 0 0 0 0
0 0 0 0 0 0 0 0 0 0 0 0 0 0 0 0 0 0 0 0 0 0 0 0 0 0 0 0 0 -0 -0 0 0 0 0 0 0 0 0 0 0 0 0 0
0 0 0 0 0 0 0 0 0 0 0 0 0 0 0 0 0 0 0 0 0 0 0 0 0 0 0 0 0 0 0 0 0 0 0 0 0 0 0 0 0 0 0 0
0 0 0 0 0 0 0 0 0 0 0 0 0 0 0 0 0 0 0 0 0 0 0 0 0 0 0 0 0 0 0 0 0 0 0 0 0 0 0 0 0 0 0 0
0 0 0 0 0 0 0 0 0 0 0 0 0 0 0 0 0 0 0 0 0 0 0 0 0 0 0 0 0 0 0 0 0 0 0 -0 0 0 0 0 0 0 0 -0
0 0 0 0 0 0 0 0 0 0 0 0 0 0 0 0 0 0 0 0 0 0 0 0 0 0 0 0 0 0 0 0 0 0 0 0 0 0 0 0 0 0 -0 -0
0 0 0 0 0 0 0 0 0 0 0 0 0 0 0 0 0 0 0 0 0 0 0 0 0 0 0 0 0 0 0 0 0 0 0 0 0 0 0 0 0 0 -0 -0
0 0 0 0 0 0 0 0 0 0 0 0 0 0 0 0 0 0 0 0 0 0 0 0 0 0 0 0 0 0 0 0 0 0 0 -0 0 0 0 0 0 -0 -0 0
0 0 0 0 0 0 0 0 0 0 0 0 0 -0 0 0 0 0 0 -0 0 0 0 0 0 0 0 0 0 0 0 0 0 0 0 0 0 0 0 0 0 -0 -0 -0
0 0 0 0 0 0 0 0 0 0 0 0 0 0 0 0 0 0 0 -0 0 0 0 0 0 0 0 0 0 0 0 0 0 0 0 0 0 -0 0 -0 -0 -0 -0 -0
0 0 0 0 0 0 0 0 0 0 0 0 0 0 0 0 0 0 0 0 0 0 0 0 0 0 0 0 0 0 0 0 0 0 0 0 0 0 0 -0 -0 -0 -0 -0
0 0 0 0 0 0 0 0 0 0 0 0 0 0 0 0 0 0 0 0 0 0 0 0 0 0 0 0 0 0 0 0 0 0 0 0 0 -0 0 -0 -0 -0 0 0
0 0 0 0 0 0 0 0 0 0 0 0 0 0 0 0 0 0 0 0 0 0 0 0 0 0 0 0 -0 0 0 0 -0 0 0 0 -0 -0 -0 -0 -0 0 0 0
0 0 0 0 0 0 0 0 0 0 0 0 0 0 0 0 0 0 0 0 -0 0 -0 -0 -0 -0 0 0 -0 0 0 0 0 0 0 -0 -0 -0 -0 0 0 0 0 0
0 0 0 0 0 0 0 0 0 0 0 0 0 0 0 0 0 0 0 -0 0 0 -0 0 0 0 -0 -0 -0 0 0 0 0 0 -0 0 -0 -0 -0 -0 0 0 0 0
0 0 0 0 0 0 0 0 0 0 0 0 0 0 0 0 0 -0 -0 -0 -0 -0 -0 0 0 0 -0 -0 -0 -0 0 0 -0 -0 -0 -0 -0 -0 0 -0 -0 0 0 0
0 0 0 0 0 0 0 0 0 0 0 0 0 0 0 0 -0 -0 -0 -0 -0 -0 0 0 0 -0 -0 -0 -0 -0 0 0 0 -0 -0 0 -0 -0 0 0 0 0 0 0
0 0 0 0 0 0 0 0 0 0 0 0 0 0 0 -0 -0 -0 -0 -0 0 0 0 0 -0 -0 -0 -0 -0 -0 0 0 0 0 -0 -0 -0 0 0 0 0 0 0 0
0 0 0 0 0 0 0 0 0 0 0 0 0 -0 -0 -0 -0 -0 -0 -0 -0 0 0 0 -0 -0 -0 -0 -0 -0 0 0 0 -0 -0 0 0 0 0 0 0 0 0 0
0 0 0 0 0 0 0 0 0 0 0 0 0 0 -0 -0 -0 -0 -0 -0 -0 0 -0 -0 -0 -0 -0 -0 -0 -0 -0 0 0 -0 -0 0 0 0 0 0 0 0 0 0
0 0 0 0 0 0 0 0 0 0 0 0 0 0 0 -0 -0 -0 -0 -0 0 -0 -0 -0 -0 -0 -0 -0 -0 -0 -0 -0 0 0 -0 0 0 0 -0 -0 0 0 0 0
Wind_Speed_500mb
53 53 56 58 58 50 41 11 4 14 19 9 4 0 2 11 11 10 9 6 8 9 8 7 7 10 10 21 4 8 7 8 8 15 6 5 10 14 12 8 9 7 5 28
55 51 51 53 56 54 47 19 9 11 15 4 6 12 10 9 6 7 7 7 5 5 2 5 7 6 12 11 7 7 8 3 3 10 2 7 5 8 9 5 4 22 13 22
57 53 51 50 50 47 36 12 7 9 14 10 5 8 10 8 10 4 11 8 4 7 4 7 8 4 7 7 4 19 5 11 12 13 9 7 7 14 12 11 10 18 27 54
55 56 51 50 48 43 24 15 2 2 7 4 4 4 6 7 7 12 14 7 11 5 8 8 12 10 6 14 24 12 13 15 14 16 18 14 23 33 35 30 37 24 41 38
51 58 54 48 46 41 17 10 8 6 9 13 8 4 4 3 7 5 8 5 14 10 10 15 32 5 7 11 10 7 2 4 7 7 17 24 34 38 38 40 40 37 44 46
47 51 49 51 47 43 15 11 6 6 6 5 2 6 4 4 8 14 19 8 11 12 22 21 37 45 41 24 11 8 5 6 3 9 2 12 18 30 24 14 13 15 15 27
45 50 44 44 47 42 30 17 6 0 7 3 7 6 13 22 8 8 35 37 10 16 53 59 54 52 48 38 33 29 11 10 6 8 4 10 10 8 10 14 14 15 21 22
40 45 45 39 37 37 31 22 3 2 7 9 20 14 10 19 31 11 18 30 17 38 34 8 12 6 4 2 6 15 19 10 6 6 7 14 13 4 3 7 13 11 18 12
37 39 43 42 34 31 25 15 8 2 10 9 11 7 10 5 7 11 10 34 28 15 3 4 5 5 6 5 2 10 11 15 5 2 3 10 8 5 13 8 17 8 10 20
34 36 40 40 39 30 23 13 9 7 10 17 5 9 6 4 4 6 13 19 15 13 6 3 4 5 8 4 5 4 6 6 15 12 10 15 7 10 5 1 5 27 49 50
33 35 37 36 38 34 22 13 11 8 13 43 25 14 18 14 9 5 11 14 6 9 8 5 6 5 4 6 6 6 6 6 6 5 7 14 5 2 6 10 53 59 31 64
29 35 37 34 35 33 24 18 16 24 24 37 63 42 37 45 36 23 9 6 2 5 4 4 2 5 5 1 5 6 5 9 6 13 11 10 13 31 42 58 44 46 66 64
28 34 37 34 33 30 23 27 21 21 18 32 11 5 15 24 18 25 15 9 12 7 9 5 3 8 3 5 8 3 8 7 7 3 12 16 31 49 55 49 49 65 65 69
29 35 33 34 30 28 28 24 14 9 9 8 12 19 12 10 9 19 42 23 5 12 14 9 6 6 13 7 9 6 16 7 8 14 25 31 44 44 59 49 57 66 62 64
28 35 32 33 29 25 22 5 9 6 9 7 24 23 7 17 19 13 24 38 43 20 7 6 5 8 3 7 6 7 5 6 5 9 40 43 42 61 60 50 73 73 76 64
29 32 32 30 27 21 12 5 1 7 1 6 6 18 11 34 33 15 24 39 41 23 9 8 10 12 5 5 5 15 32 38 42 17 46 58 54 59 60 67 87 65 59 59
29 28 32 30 23 16 3 3 6 12 10 6 9 13 12 28 28 14 5 16 15 19 11 12 10 11 14 4 6 19 44 48 47 54 40 31 40 60 69 59 57 45 49 46
25 26 31 25 22 17 5 9 7 14 15 5 4 8 18 22 13 11 4 5 12 12 8 8 5 0 5 6 16 55 72 68 47 42 50 41 68 74 55 54 45 51 47 49
18 22 16 4 7 8 6 8 0 10 5 4 2 4 7 20 12 10 8 4 3 5 4 5 4 2 5 20 51 63 66 48 45 45 45 59 62 63 48 53 48 45 53 52
8 9 8 7 11 12 1 5 4 7 5 6 5 7 7 9 9 8 8 2 3 4 6 6 2 1 30 54 74 62 67 34 43 41 36 53 64 64 58 51 44 43 50 50
9 13 10 13 12 6 6 5 5 5 4 9 10 13 8 9 4 6 8 4 4 4 1 3 3 7 35 81 88 87 66 29 44 35 41 53 57 60 56 56 56 51 48 53
10 10 12 14 8 6 4 5 8 6 5 7 9 11 17 11 8 9 5 4 4 3 8 3 5 12 66 77 80 81 55 30 49 38 44 57 57 53 45 44 44 44 40 38
13 8 9 8 8 4 6 8 2 2 6 8 9 8 7 5 6 9 3 5 4 6 6 5 4 43 75 84 81 86 54 40 50 41 44 59 59 60 59 57 46 39 39 39
10 10 5 8 6 7 7 7 7 3 9 20 20 7 3 5 5 4 4 4 5 5 7 8 12 62 77 84 91 80 72 61 50 43 36 50 54 59 58 61 52 46 44 41
8 8 7 8 6 6 9 6 3 3 13 18 3 4 4 5 5 6 7 7 7 8 6 7 49 73 76 83 87 83 75 63 52 41 34 46 55 62 61 57 55 49 46 43
9 8 4 5 8 3 6 4 2 10 18 6 5 4 5 8 5 9 9 5 6 6 12 44 59 71 76 79 84 81 64 53 45 37 29 44 57 59 57 54 55 52 47 44
6 7 12 9 8 7 6 2 6 14 7 3 4 6 3 3 7 6 4 5 7 30 43 49 56 56 63 73 76 72 54 53 43 32 29 39 48 53 61 61 55 56 52 48
Wind_Direction_500mb
0 1 0 359 357 360 3 1 1 345 341 34 24 153 262 302 276 290 279 245 238 225 219 232 246 232 229 204 165 215 190 163 223 234 270 226 170 192 156 137 244 216 216 262
357 359 0 1 358 357 356 352 319 341 354 76 339 320 300 268 303 317 316 307 27 7 271 284 248 280 89 78 160 189 182 239 283 316 20 356 162 181 185 184 128 233 246 267
356 355 359 0 0 358 356 5 10 353 44 67 75 347 275 289 327 288 343 287 25 358 306 228 272 297 300 12 180 296 221 189 206 225 233 153 282 258 222 215 245 271 234 274
354 352 356 360 3 4 5 19 61 34 303 349 328 242 278 289 321 341 358 353 53 338 285 305 254 263 306 298 296 289 181 226 206 236 249 269 259 262 260 244 249 246 275 273
354 349 351 359 4 10 18 21 7 334 280 297 309 223 232 291 360 306 292 46 319 291 230 234 283 274 207 224 288 188 35 268 170 256 235 242 258 260 254 253 253 256 261 269
350 348 351 352 1 10 27 11 329 306 279 317 350 240 262 239 23 276 256 335 289 270 274 289 280 267 254 240 214 214 179 142 28 268 227 295 272 253 241 218 218 205 236 257
345 344 351 353 355 3 8 358 343 348 280 244 222 287 299 287 262 262 279 286 271 274 312 303 287 261 252 245 240 219 183 151 191 267 32 244 236 238 231 226 249 247 273 280
339 340 344 349 355 352 356 2 351 272 276 260 291 254 245 298 304 257 270 295 290 314 309 309 326 344 188 58 213 196 208 171 236 251 218 296 276 36 202 187 278 258 285 322
328 339 338 338 350 348 349 341 358 227 293 250 276 319 289 281 299 319 280 312 326 323 259 250 315 292 318 352 50 68 162 181 207 356 274 250 244 140 109 98 278 63 21 323
319 337 333 333 338 347 343 332 294 328 267 282 334 231 249 267 247 269 296 332 331 358 325 323 287 280 316 333 316 324 132 196 222 242 255 279 260 157 128 323 321 321 303 293
318 330 328 332 334 335 345 332 306 289 267 286 270 264 240 244 214 204 309 342 350 335 27 327 2 326 331 340 279 297 198 200 219 237 237 269 148 98 224 277 310 298 306 304
314 323 324 332 333 329 329 330 306 294 275 273 300 295 279 259 246 255 241 229 320 255 32 352 289 325 325 254 288 322 287 193 215 185 230 247 285 257 292 309 291 307 304 292
307 318 321 331 328 327 318 314 311 311 299 314 303 27 333 295 277 237 227 225 204 204 254 230 269 264 159 260 249 255 281 200 237 329 265 254 282 301 304 301 303 314 307 293
301 310 325 326 323 326 322 318 322 291 287 295 280 343 15 346 300 245 231 223 202 250 226 239 229 243 198 243 243 230 261 277 243 258 276 293 279 294 301 299 309 318 302 303
297 303 323 317 315 322 328 334 309 289 244 273 290 319 21 5 348 279 226 226 234 245 248 226 241 251 261 254 242 247 218 254 247 271 301 292 290 305 313 312 314 312 305 307
291 304 312 308 307 317 340 254 279 359 349 296 296 314 301 353 352 326 245 235 233 213 237 238 228 239 175 268 255 251 253 256 265 271 300 294 320 318 312 319 312 312 309 308
285 303 303 300 297 295 289 258 286 305 2 301 289 298 311 345 352 339 309 200 201 204 223 235 249 246 195 245 269 309 319 320 308 311 319 314 319 317 316 318 318 322 317 315
285 299 296 292 279 277 182 189 276 300 268 281 311 284 317 346 325 325 314 211 211 224 253 261 241 340 242 251 282 310 307 312 317 338 336 320 322 321 319 329 322 325 325 326
279 297 293 234 161 140 159 298 32 179 215 302 276 299 297 330 319 302 281 251 221 237 239 244 162 96 25 321 326 320 316 321 328 335 335 332 325 327 330 338 338 335 327 331
285 243 210 196 164 160 260 159 210 206 218 230 245 260 272 306 330 294 319 260 253 254 228 135 91 144 351 340 333 328 331 348 334 327 329 333 331 338 338 341 346 336 332 332
212 199 199 177 171 190 186 192 217 190 241 216 237 243 270 288 241 269 256 284 255 258 40 297 97 5 344 338 339 347 354 343 344 334 336 345 348 342 341 346 349 346 342 337
203 173 155 165 172 177 187 185 153 217 247 215 220 265 237 287 246 262 279 291 255 292 332 32 19 346 338 336 338 341 347 330 345 339 341 350 355 354 352 0 360 346 338 343
166 173 161 167 174 141 207 181 206 233 214 246 264 298 280 287 255 279 311 277 321 332 28 25 54 339 334 337 342 344 349 344 340 339 346 352 357 5 4 8 7 4 357 0
188 169 159 193 187 231 190 167 176 229 255 306 318 296 338 326 330 272 282 310 342 61 21 351 343 332 330 333 341 344 349 347 347 340 346 359 2 6 10 16 14 13 12 10
191 173 189 201 214 136 141 157 172 287 322 323 343 70 30 357 315 14 1 30 39 21 4 316 325 325 327 329 338 343 344 348 345 347 348 4 9 14 15 19 17 24 21 20
195 219 159 169 115 117 136 158 289 351 348 30 63 78 62 39 7 41 19 46 37 334 320 319 323 323 326 335 342 345 350 358 355 358 359 9 15 15 20 22 25 30 33 31
206 229 195 153 141 131 130 318 329 334 343 70 79 59 52 25 47 45 47 42 313 314 320 323 324 326 335 341 344 350 2 5 5 12 10 14 17 20 27 25 31 35 36 39
Wind_Speed_850mb
53 53 56 58 58 50 41 11 4 14 19 9 4 0 2 11 11 10 9 6 8 9 8 7 7 10 10 21 4 8 7 8 8 15 6 5 10 14 12 8 9 7 5 28
55 51 51 53 56 54 47 19 9 11 15 4 6 12 10 9 6 7 7 7 5 5 2 5 7 6 12 11 7 7 8 3 3 10 2 7 5 8 9 5 4 22 13 22
57 53 51 50 50 47 36 12 7 9 14 10 5 8 10 8 10 4 11 8 4 7 4 7 8 4 7 7 4 19 5 11 12 13 9 7 7 14 12 11 10 18 27 54
55 56 51 50 48 43 24 15 2 2 7 4 4 4 6 7 7 12 14 7 11 5 8 8 12 10 6 14 24 12 13 15 14 16 18 14 23 33 35 30 37 24 41 38
51 58 54 48 46 41 17 10 8 6 9 13 8 4 4 3 7 5 8 5 14 10 10 15 32 5 7 11 10 7 2 4 7 7 17 24 34 38 38 40 40 37 44 46
47 51 49 51 47 43 15 11 6 6 6 5 2 6 4 4 8 14 19 8 11 12 22 21 37 45 41 24 11 8 5 6 3 9 2 12 18 30 24 14 13 15 15 27
45 50 44 44 47 42 30 17 6 0 7 3 7 6 13 22 8 8 35 37 10 16 53 59 54 52 48 38 33 29 11 10 6 8 4 10 10 8 10 14 14 15 21 22
40 45 45 39 37 37 31 22 3 2 7 9 20 14 10 19 31 11 18 30 17 38 34 8 12 6 4 2 6 15 19 10 6 6 7 14 13 4 3 7 13 11 18 12
37 39 43 42 34 31 25 15 8 2 10 9 11 7 10 5 7 11 10 34 28 15 3 4 5 5 6 5 2 10 11 15 5 2 3 10 8 5 13 8 17 8 10 20
34 36 40 40 39 30 23 13 9 7 10 17 5 9 6 4 4 6 13 19 15 13 6 3 4 5 8 4 5 4 6 6 15 12 10 15 7 10 5 1 5 27 49 50
33 35 37 36 38 34 22 13 11 8 13 43 25 14 18 14 9 5 11 14 6 9 8 5 6 5 4 6 6 6 6 6 6 5 7 14 5 2 6 10 53 59 31 64
29 35 37 34 35 33 24 18 16 24 24 37 63 42 37 45 36 23 9 6 2 5 4 4 2 5 5 1 5 6 5 9 6 13 11 10 13 31 42 58 44 46 66 64
28 34 37 34 33 30 23 27 21 21 18 32 11 5 15 24 18 25 15 9 12 7 9 5 3 8 3 5 8 3 8 7 7 3 12 16 31 49 55 49 49 65 65 69
29 35 33 34 30 28 28 24 14 9 9 8 12 19 12 10 9 19 42 23 5 12 14 9 6 6 13 7 9 6 16 7 8 14 25 31 44 44 59 49 57 66 62 64
28 35 32 33 29 25 22 5 9 6 9 7 24 23 7 17 19 13 24 38 43 20 7 6 5 8 3 7 6 7 5 6 5 9 40 43 42 61 60 50 73 73 76 64
29 32 32 30 27 21 12 5 1 7 1 6 6 18 11 34 33 15 24 39 41 23 9 8 10 12 5 5 5 15 32 38 42 17 46 58 54 59 60 67 87 65 59 59
29 28 32 30 23 16 3 3 6 12 10 6 9 13 12 28 28 14 5 16 15 19 11 12 10 11 14 4 6 19 44 48 47 54 40 31 40 60 69 59 57 45 49 46
25 26 31 25 22 17 5 9 7 14 15 5 4 8 18 22 13 11 4 5 12 12 8 8 5 0 5 6 16 55 72 68 47 42 50 41 68 74 55 54 45 51 47 49
18 22 16 4 7 8 6 8 0 10 5 4 2 4 7 20 12 10 8 4 3 5 4 5 4 2 5 20 51 63 66 48 45 45 45 59 62 63 48 53 48 45 53 52
8 9 8 7 11 12 1 5 4 7 5 6 5 7 7 9 9 8 8 2 3 4 6 6 2 1 30 54 74 62 67 34 43 41 36 53 64 64 58 51 44 43 50 50
9 13 10 13 12 6 6 5 5 5 4 9 10 13 8 9 4 6 8 4 4 4 1 3 3 7 35 81 88 87 66 29 44 35 41 53 57 60 56 56 56 51 48 53
10 10 12 14 8 6 4 5 8 6 5 7 9 11 17 11 8 9 5 4 4 3 8 3 5 12 66 77 80 81 55 30 49 38 44 57 57 53 45 44 44 44 40 38
13 8 9 8 8 4 6 8 2 2 6 8 9 8 7 5 6 9 3 5 4 6 6 5 4 43 75 84 81 86 54 40 50 41 44 59 59 60 59 57 46 39 39 39
10 10 5 8 6 7 7 7 7 3 9 20 20 7 3 5 5 4 4 4 5 5 7 8 12 62 77 84 91 80 72 61 50 43 36 50 54 59 58 61 52 46 44 41
8 8 7 8 6 6 9 6 3 3 13 18 3 4 4 5 5 6 7 7 7 8 6 7 49 73 76 83 87 83 75 63 52 41 34 46 55 62 61 57 55 49 46 43
9 8 4 5 8 3 6 4 2 10 18 6 5 4 5 8 5 9 9 5 6 6 12 44 59 71 76 79 84 81 64 53 45 37 29 44 57 59 57 54 55 52 47 44
6 7 12 9 8 7 6 2 6 14 7 3 4 6 3 3 7 6 4 5 7 30 43 49 56 56 63 73 76 72 54 53 43 32 29 39 48 53 61 61 55 56 52 48
Wind_Direction_850mb
0 1 0 359 357 360 3 1 1 345 341 34 24 153 262 302 276 290 279 245 238 225 219 232 246 232 229 204 165 215 190 163 223 234 270 226 170 192 156 137 244 216 216 262
357 359 0 1 358 357 356 352 319 341 354 76 339 320 300 268 303 317 316 307 27 7 271 284 248 280 89 78 160 189 182 239 283 316 20 356 162 181 185 184 128 233 246 267
356 355 359 0 0 358 356 5 10 353 44 67 75 347 275 289 327 288 343 287 25 358 306 228 272 297 300 12 180 296 221 189 206 225 233 153 282 258 222 215 245 271 234 274
354 352 356 360 3 4 5 19 61 34 303 349 328 242 278 289 321 341 358 353 53 338 285 305 254 263 306 298 296 289 181 226 206 236 249 269 259 262 260 244 249 246 275 273
354 349 351 359 4 10 18 21 7 334 280 297 309 223 232 291 360 306 292 46 319 291 230 234 283 274 207 224 288 188 35 268 170 256 235 242 258 260 254 253 253 256 261 269
350 348 351 352 1 10 27 11 329 306 279 317 350 240 262 239 23 276 256 335 289 270 274 289 280 267 254 240 214 214 179 142 28 268 227 295 272 253 241 218 218 205 236 257
345 344 351 353 355 3 8 358 343 348 280 244 222 287 299 287 262 262 279 286 271 274 312 303 287 261 252 245 240 219 183 151 191 267 32 244 236 238 231 226 249 247 273 280
339 340 344 349 355 352 356 2 351 272 276 260 291 254 245 298 304 257 270 295 290 314 309 309 326 344 188 58 213 196 208 171 236 251 218 296 276 36 202 187 278 258 285 322
328 339 338 338 350 348 349 341 358 227 293 250 276 319 289 281 299 319 280 312 326 323 259 250 315 292 318 352 50 68 162 181 207 356 274 250 244 140 109 98 278 63 21 323
319 337 333 333 338 347 343 332 294 328 267 282 334 231 249 267 247 269 296 332 331 358 325 323 287 280 316 333 316 324 132 196 222 242 255 279 260 157 128 323 321 321 303 293
318 330 328 332 334 335 345 332 306 289 267 286 270 264 240 244 214 204 309 342 350 335 27 327 2 326 331 340 279 297 198 200 219 237 237 269 148 98 224 277 310 298 306 304
314 323 324 332 333 329 329 330 306 294 275 273 300 295 279 259 246 255 241 229 320 255 32 352 289 325 325 254 288 322 287 193 215 185 230 247 285 257 292 309 291 307 304 292
307 318 321 331 328 327 318 314 311 311 299 314 303 27 333 295 277 237 227 225 204 204 254 230 269 264 159 260 249 255 281 200 237 329 265 254 282 301 304 301 303 314 307 293
301 310 325 326 323 326 322 318 322 291 287 295 280 343 15 346 300 245 231 223 202 250 226 239 229 243 198 243 243 230 261 277 243 258 276 293 279 294 301 299 309 318 302 303
297 303 323 317 315 322 328 334 309 289 244 273 290 319 21 5 348 279 226 226 234 245 248 226 241 251 261 254 242 247 218 254 247 271 301 292 290 305 313 312 314 312 305 307
291 304 312 308 307 317 340 254 279 359 349 296 296 314 301 353 352 326 245 235 233 213 237 238 228 239 175 268 255 251 253 256 265 271 300 294 320 318 312 319 312 312 309 308
285 303 303 300 297 295 289 258 286 305 2 301 289 298 311 345 352 339 309 200 201 204 223 235 249 246 195 245 269 309 319 320 308 311 319 314 319 317 316 318 318 322 317 315
285 299 296 292 279 277 182 189 276 300 268 281 311 284 317 346 325 325 314 211 211 224 253 261 241 340 242 251 282 310 307 312 317 338 336 320 322 321 319 329 322 325 325 326
279 297 293 234 161 140 159 298 32 179 215 302 276 299 297 330 319 302 281 251 221 237 239 244 162 96 25 321 326 320 316 321 328 335 335 332 325 327 330 338 338 335 327 331
285 243 210 196 164 160 260 159 210 206 218 230 245 260 272 306 330 294 319 260 253 254 228 135 91 144 351 340 333 328 331 348 334 327 329 333 331 338 338 341 346 336 332 332
212 199 199 177 171 190 186 192 217 190 241 216 237 243 270 288 241 269 256 284 255 258 40 297 97 5 344 338 339 347 354 343 344 334 336 345 348 342 341 346 349 346 342 337
203 173 155 165 172 177 187 185 153 217 247 215 220 265 237 287 246 262 279 291 255 292 332 32 19 346 338 336 338 341 347 330 345 339 341 350 355 354 352 0 360 346 338 343
166 173 161 167 174 141 207 181 206 233 214 246 264 298 280 287 255 279 311 277 321 332 28 25 54 339 334 337 342 344 349 344 340 339 346 352 357 5 4 8 7 4 357 0
188 169 159 193 187 231 190 167 176 229 255 306 318 296 338 326 330 272 282 310 342 61 21 351 343 332 330 333 341 344 349 347 347 340 346 359 2 6 10 16 14 13 12 10
191 173 189 201 214 136 141 157 172 287 322 323 343 70 30 357 315 14 1 30 39 21 4 316 325 325 327 329 338 343 344 348 345 347 348 4 9 14 15 19 17 24 21 20
195 219 159 169 115 117 136 158 289 351 348 30 63 78 62 39 7 41 19 46 37 334 320 319 323 323 326 335 342 345 350 358 355 358 359 9 15 15 20 22 25 30 33 31
206 229 195 153 141 131 130 318 329 334 343 70 79 59 52 25 47 45 47 42 313 314 320 323 324 326 335 341 344 350 2 5 5 12 10 14 17 20 27 25 31 35 36 39